Time,TemperatureF,DewpointF,PressureIn,WindDirection,WindDirectionDegrees,WindSpeedMPH,WindSpeedGustMPH,Humidity,HourlyPrecipIn,Conditions,Clouds,dailyrainin,SoftwareType,DateUTC
2013-04-14 00:12:00,43.6,39.0,29.98,NNE,30,0.0,-999.0,84,-99.99,,,0.00,weatherlink.com 1.10,2013-04-14 04:12:00,
2013-04-14 00:27:00,43.3,39.0,29.98,NNE,30,0.0,-999.0,83,-99.99,,,0.00,weatherlink.com 1.10,2013-04-14 04:27:00,
2013-04-14 00:42:00,43.3,39.0,29.97,NNE,30,0.0,-999.0,85,-99.99,,,0.00,weatherlink.com 1.10,2013-04-14 04:42:00,
2013-04-14 00:57:00,42.7,38.0,29.97,NNE,30,0.0,-999.0,84,-99.99,,,0.00,weatherlink.com 1.10,2013-04-14 04:57:00,
2013-04-14 01:12:00,42.3,38.0,29.97,NNE,30,0.0,-999.0,85,-99.99,,,0.00,weatherlink.com 1.10,2013-04-14 05:12:00,
2013-04-14 01:27:00,42.0,38.0,29.97,NNE,30,0.0,-999.0,87,-99.99,,,0.00,weatherlink.com 1.10,2013-04-14 05:27:00,
2013-04-14 01:42:00,41.4,38.0,29.96,NNE,30,0.0,-999.0,86,-99.99,,,0.00,weatherlink.com 1.10,2013-04-14 05:42:00,
2013-04-14 01:57:00,40.9,37.0,29.96,NNE,30,0.0,-999.0,86,-99.99,,,0.00,weatherlink.com 1.10,2013-04-14 05:57:00,
2013-04-14 02:12:00,40.3,37.0,29.97,NNE,30,0.0,-999.0,87,-99.99,,,0.00,weatherlink.com 1.10,2013-04-14 06:12:00,
2013-04-14 02:27:00,39.9,37.0,29.97,NNE,30,0.0,-999.0,89,-99.99,,,0.00,weatherlink.com 1.10,2013-04-14 06:27:00,
2013-04-14 02:43:00,39.4,37.0,29.97,NNE,30,0.0,-999.0,90,-99.99,,,0.00,weatherlink.com 1.10,2013-04-14 06:43:00,
2013-04-14 02:58:00,38.5,36.0,29.96,NNE,30,0.0,-999.0,89,-99.99,,,0.00,weatherlink.com 1.10,2013-04-14 06:58:00,
2013-04-14 03:13:00,37.8,36.0,29.96,NNE,30,0.0,-999.0,91,-99.99,,,0.00,weatherlink.com 1.10,2013-04-14 07:13:00,
2013-04-14 03:28:00,37.5,35.0,29.97,NNE,30,0.0,-999.0,92,-99.99,,,0.00,weatherlink.com 1.10,2013-04-14 07:28:00,
2013-04-14 03:43:00,37.4,36.0,29.96,NNE,30,0.0,-999.0,93,-99.99,,,0.00,weatherlink.com 1.10,2013-04-14 07:43:00,
2013-04-14 03:58:00,37.4,36.0,29.98,NNE,30,0.0,-999.0,93,-99.99,,,0.00,weatherlink.com 1.10,2013-04-14 07:58:00,
2013-04-14 04:13:00,37.5,36.0,29.98,NNE,30,0.0,-999.0,93,-99.99,,,0.00,weatherlink.com 1.10,2013-04-14 08:13:00,
2013-04-14 04:28:00,37.7,36.0,29.98,NNE,30,0.0,-999.0,94,-99.99,,,0.00,weatherlink.com 1.10,2013-04-14 08:28:00,
2013-04-14 04:43:00,37.7,36.0,29.98,NNE,30,0.0,-999.0,94,-99.99,,,0.00,weatherlink.com 1.10,2013-04-14 08:43:00,
2013-04-14 04:58:00,37.7,36.0,29.99,NNE,30,0.0,-999.0,94,-99.99,,,0.00,weatherlink.com 1.10,2013-04-14 08:58:00,
2013-04-14 05:13:00,37.7,36.0,29.98,NNE,30,0.0,-999.0,94,-99.99,,,0.00,weatherlink.com 1.10,2013-04-14 09:13:00,
2013-04-14 05:28:00,37.8,36.0,29.99,NNE,30,0.0,-999.0,94,-99.99,,,0.00,weatherlink.com 1.10,2013-04-14 09:28:00,
2013-04-14 05:43:00,38.0,36.0,29.99,NNE,30,0.0,-999.0,93,-99.99,,,0.00,weatherlink.com 1.10,2013-04-14 09:43:00,
2013-04-14 05:58:00,38.2,36.0,30.00,NNE,30,0.0,-999.0,92,-99.99,,,0.00,weatherlink.com 1.10,2013-04-14 09:58:00,
2013-04-14 06:13:00,38.5,36.0,30.00,NNE,30,0.0,-999.0,90,-99.99,,,0.00,weatherlink.com 1.10,2013-04-14 10:13:00,
2013-04-14 06:28:00,38.8,36.0,30.00,NNE,30,0.0,-999.0,89,-99.99,,,0.00,weatherlink.com 1.10,2013-04-14 10:28:00,
2013-04-14 06:43:00,39.0,36.0,30.00,NNE,30,0.0,-999.0,88,-99.99,,,0.00,weatherlink.com 1.10,2013-04-14 10:43:00,
2013-04-14 06:58:00,38.9,35.0,30.00,NNE,30,0.0,-999.0,87,-99.99,,,0.00,weatherlink.com 1.10,2013-04-14 10:58:00,
2013-04-14 07:13:00,39.4,36.0,30.01,WSW,254,0.0,-999.0,88,-99.99,,,0.00,weatherlink.com 1.10,2013-04-14 11:13:00,
2013-04-14 07:28:00,40.1,37.0,30.01,WSW,254,0.0,-999.0,88,-99.99,,,0.00,weatherlink.com 1.10,2013-04-14 11:28:00,
2013-04-14 07:43:00,40.5,36.0,30.00,NW,309,0.0,-999.0,84,-99.99,,,0.00,weatherlink.com 1.10,2013-04-14 11:43:00,
2013-04-14 07:58:00,40.9,36.0,30.01,NW,309,0.0,-999.0,84,-99.99,,,0.00,weatherlink.com 1.10,2013-04-14 11:58:00,
2013-04-14 08:13:00,42.3,37.0,30.01,NNW,338,0.0,-999.0,80,-99.99,,,0.00,weatherlink.com 1.10,2013-04-14 12:13:00,
2013-04-14 08:28:00,43.3,37.0,30.02,NNW,340,1.0,-999.0,79,-99.99,,,0.00,weatherlink.com 1.10,2013-04-14 12:28:00,
2013-04-14 08:43:00,44.1,37.0,30.02,North,360,0.0,-999.0,77,-99.99,,,0.00,weatherlink.com 1.10,2013-04-14 12:43:00,
2013-04-14 08:58:00,44.2,36.0,30.02,SW,217,0.0,-999.0,72,-99.99,,,0.00,weatherlink.com 1.10,2013-04-14 12:58:00,
2013-04-14 09:13:00,43.8,35.0,30.02,NW,311,0.0,-999.0,72,-99.99,,,0.00,weatherlink.com 1.10,2013-04-14 13:13:00,
2013-04-14 09:28:00,44.0,35.0,30.02,ESE,112,1.0,-999.0,70,-99.99,,,0.00,weatherlink.com 1.10,2013-04-14 13:28:00,
2013-04-14 09:43:00,44.4,34.0,30.02,SSE,160,1.0,-999.0,67,-99.99,,,0.00,weatherlink.com 1.10,2013-04-14 13:43:00,
2013-04-14 09:58:00,45.2,36.0,30.03,West,259,0.0,-999.0,69,-99.99,,,0.00,weatherlink.com 1.10,2013-04-14 13:58:00,
2013-04-14 10:13:00,47.0,34.0,30.03,WSW,257,1.0,-999.0,62,-99.99,,,0.00,weatherlink.com 1.10,2013-04-14 14:13:00,
2013-04-14 10:28:00,49.2,36.0,30.03,West,271,1.0,-999.0,61,-99.99,,,0.00,weatherlink.com 1.10,2013-04-14 14:28:00,
2013-04-14 10:43:00,49.9,34.0,30.03,WSW,252,2.0,-999.0,55,-99.99,,,0.00,weatherlink.com 1.10,2013-04-14 14:43:00,
2013-04-14 10:58:00,51.5,35.0,30.03,WSW,237,0.0,-999.0,53,-99.99,,,0.00,weatherlink.com 1.10,2013-04-14 14:58:00,
2013-04-14 11:13:00,52.8,35.0,30.04,SW,220,0.0,-999.0,52,-99.99,,,0.00,weatherlink.com 1.10,2013-04-14 15:13:00,
2013-04-14 11:28:00,51.5,32.0,30.04,West,276,1.0,-999.0,48,-99.99,,,0.00,weatherlink.com 1.10,2013-04-14 15:28:00,
2013-04-14 11:43:00,50.7,33.0,30.04,WNW,295,2.0,-999.0,51,-99.99,,,0.00,weatherlink.com 1.10,2013-04-14 15:43:00,
2013-04-14 11:58:00,49.1,35.0,30.03,NW,310,1.0,-999.0,58,-99.99,,,0.00,weatherlink.com 1.10,2013-04-14 15:58:00,
2013-04-14 12:13:00,51.5,34.0,30.03,West,266,4.0,-999.0,52,-99.99,,,0.00,weatherlink.com 1.10,2013-04-14 16:13:00,
2013-04-14 12:28:00,53.4,35.0,30.03,NE,40,0.0,-999.0,50,-99.99,,,0.00,weatherlink.com 1.10,2013-04-14 16:28:00,
2013-04-14 12:43:00,52.2,33.0,30.03,NNW,328,2.0,-999.0,49,-99.99,,,0.00,weatherlink.com 1.10,2013-04-14 16:43:00,
2013-04-14 12:58:00,49.9,32.0,30.04,WSW,257,1.0,-999.0,50,-99.99,,,0.00,weatherlink.com 1.10,2013-04-14 16:58:00,
2013-04-14 13:13:00,50.1,33.0,30.04,SE,140,0.0,-999.0,52,-99.99,,,0.00,weatherlink.com 1.10,2013-04-14 17:13:00,
2013-04-14 13:29:00,51.0,33.0,30.04,West,259,2.0,-999.0,50,-99.99,,,0.00,weatherlink.com 1.10,2013-04-14 17:29:00,
2013-04-14 13:44:00,49.5,33.0,30.04,West,277,1.0,-999.0,53,-99.99,,,0.00,weatherlink.com 1.10,2013-04-14 17:44:00,
2013-04-14 13:59:00,47.8,33.0,30.05,WNW,292,0.0,-999.0,56,-99.99,,,0.00,weatherlink.com 1.10,2013-04-14 17:59:00,
2013-04-14 14:14:00,49.0,33.0,30.05,North,5,0.0,-999.0,55,-99.99,,,0.00,weatherlink.com 1.10,2013-04-14 18:14:00,
2013-04-14 14:29:00,49.9,31.0,30.05,West,273,0.0,-999.0,49,-99.99,,,0.00,weatherlink.com 1.10,2013-04-14 18:29:00,
2013-04-14 14:44:00,49.2,30.0,30.06,NW,313,0.0,-999.0,48,-99.99,,,0.00,weatherlink.com 1.10,2013-04-14 18:44:00,
2013-04-14 14:59:00,48.4,29.0,30.06,WSW,249,0.0,-999.0,48,-99.99,,,0.00,weatherlink.com 1.10,2013-04-14 18:59:00,
2013-04-14 15:14:00,47.9,30.0,30.06,West,265,1.0,-999.0,51,-99.99,,,0.00,weatherlink.com 1.10,2013-04-14 19:14:00,
2013-04-14 15:30:00,47.8,32.0,30.06,WNW,302,0.0,-999.0,55,-99.99,,,0.00,weatherlink.com 1.10,2013-04-14 19:30:00,
2013-04-14 15:44:00,48.2,31.0,30.07,North,10,0.0,-999.0,51,-99.99,,,0.00,weatherlink.com 1.10,2013-04-14 19:44:00,
2013-04-14 15:59:00,49.2,29.0,30.08,NNE,14,2.0,-999.0,46,-99.99,,,0.00,weatherlink.com 1.10,2013-04-14 19:59:00,
2013-04-14 16:14:00,48.9,30.0,30.08,West,275,0.0,-999.0,49,-99.99,,,0.00,weatherlink.com 1.10,2013-04-14 20:14:00,
2013-04-14 16:29:00,47.8,30.0,30.08,SW,234,1.0,-999.0,50,-99.99,,,0.00,weatherlink.com 1.10,2013-04-14 20:29:00,
2013-04-14 16:44:00,48.0,31.0,30.09,WNW,300,1.0,-999.0,53,-99.99,,,0.00,weatherlink.com 1.10,2013-04-14 20:44:00,
2013-04-14 16:59:00,47.2,29.0,30.09,SSW,206,1.0,-999.0,50,-99.99,,,0.00,weatherlink.com 1.10,2013-04-14 20:59:00,
2013-04-14 17:14:00,46.3,30.0,30.10,NW,313,1.0,-999.0,54,-99.99,,,0.00,weatherlink.com 1.10,2013-04-14 21:14:00,
2013-04-14 17:29:00,46.4,29.0,30.10,NW,324,1.0,-999.0,52,-99.99,,,0.00,weatherlink.com 1.10,2013-04-14 21:29:00,
2013-04-14 17:44:00,45.9,29.0,30.11,West,265,0.0,-999.0,53,-99.99,,,0.00,weatherlink.com 1.10,2013-04-14 21:44:00,
2013-04-14 17:59:00,45.4,30.0,30.12,NW,312,0.0,-999.0,55,-99.99,,,0.00,weatherlink.com 1.10,2013-04-14 21:59:00,
2013-04-14 18:14:00,45.2,29.0,30.13,West,265,0.0,-999.0,53,-99.99,,,0.00,weatherlink.com 1.10,2013-04-14 22:14:00,
2013-04-14 18:29:00,44.5,30.0,30.13,North,9,0.0,-999.0,57,-99.99,,,0.00,weatherlink.com 1.10,2013-04-14 22:29:00,
2013-04-14 18:44:00,43.9,30.0,30.13,NNW,333,0.0,-999.0,58,-99.99,,,0.00,weatherlink.com 1.10,2013-04-14 22:44:00,
2013-04-14 18:59:00,43.1,30.0,30.14,NNW,332,0.0,-999.0,60,-99.99,,,0.00,weatherlink.com 1.10,2013-04-14 22:59:00,
2013-04-14 19:14:00,42.4,30.0,30.16,SSW,210,0.0,-999.0,62,-99.99,,,0.00,weatherlink.com 1.10,2013-04-14 23:14:00,
2013-04-14 19:29:00,41.3,30.0,30.16,ESE,109,0.0,-999.0,64,-99.99,,,0.00,weatherlink.com 1.10,2013-04-14 23:29:00,
2013-04-14 19:44:00,40.3,29.0,30.17,ESE,109,0.0,-999.0,65,-99.99,,,0.00,weatherlink.com 1.10,2013-04-14 23:44:00,
2013-04-14 19:59:00,39.3,29.0,30.17,ESE,109,0.0,-999.0,67,-99.99,,,0.00,weatherlink.com 1.10,2013-04-14 23:59:00,
2013-04-14 20:14:00,38.3,29.0,30.18,ESE,109,0.0,-999.0,70,-99.99,,,0.00,weatherlink.com 1.10,2013-04-15 00:14:00,
2013-04-14 20:29:00,37.4,29.0,30.19,ESE,109,0.0,-999.0,71,-99.99,,,0.00,weatherlink.com 1.10,2013-04-15 00:29:00,
2013-04-14 20:44:00,36.5,29.0,30.20,ESE,109,0.0,-999.0,74,-99.99,,,0.00,weatherlink.com 1.10,2013-04-15 00:44:00,
2013-04-14 20:59:00,35.5,28.0,30.22,ESE,109,0.0,-999.0,75,-99.99,,,0.00,weatherlink.com 1.10,2013-04-15 00:59:00,
2013-04-14 21:14:00,34.4,28.0,30.23,ESE,109,0.0,-999.0,77,-99.99,,,0.00,weatherlink.com 1.10,2013-04-15 01:14:00,
2013-04-14 21:29:00,34.0,28.0,30.24,ESE,109,0.0,-999.0,78,-99.99,,,0.00,weatherlink.com 1.10,2013-04-15 01:29:00,
2013-04-14 21:44:00,33.2,27.0,30.24,ESE,109,0.0,-999.0,78,-99.99,,,0.00,weatherlink.com 1.10,2013-04-15 01:44:00,
2013-04-14 21:59:00,32.6,27.0,30.24,ESE,109,0.0,-999.0,81,-99.99,,,0.00,weatherlink.com 1.10,2013-04-15 01:59:00,
2013-04-14 22:14:00,32.1,28.0,30.24,ESE,109,0.0,-999.0,83,-99.99,,,0.00,weatherlink.com 1.10,2013-04-15 02:14:00,
2013-04-14 22:30:00,31.7,27.0,30.24,ESE,109,0.0,-999.0,83,-99.99,,,0.00,weatherlink.com 1.10,2013-04-15 02:30:00,
2013-04-14 22:45:00,31.2,27.0,30.25,ESE,109,0.0,-999.0,83,-99.99,,,0.00,weatherlink.com 1.10,2013-04-15 02:45:00,
2013-04-14 23:00:00,30.6,26.0,30.25,ESE,109,0.0,-999.0,83,-99.99,,,0.00,weatherlink.com 1.10,2013-04-15 03:00:00,
2013-04-14 23:15:00,30.0,26.0,30.25,ESE,109,0.0,-999.0,84,-99.99,,,0.00,weatherlink.com 1.10,2013-04-15 03:15:00,
2013-04-14 23:30:00,29.5,26.0,30.25,ESE,109,0.0,-999.0,86,-99.99,,,0.00,weatherlink.com 1.10,2013-04-15 03:30:00,
2013-04-14 23:45:00,29.3,26.0,30.26,ESE,109,0.0,-999.0,88,-99.99,,,0.00,weatherlink.com 1.10,2013-04-15 03:45:00,